Location: Buckland
(65.9785°N, 161.1281°W)
Time: 22:07:28
(UTC+00:00)

SPROUT - Pass Details

Date: 24 January 2021
Orbit: 597 x 610 km, 97.9° (Epoch: 07 March)

Event Time Altitude Azimuth Distance (km) Brightness Sun altitude
Exits shadow 03:27:51 - 21° (NNE) 2,464 ? -8.9°
Reaches altitude 10° 03:29:30 10° 7° (N) 1,981 ? -9.0°
Maximum altitude 03:32:04 16° 330° (NNW) 1,632 ? -9.3°
Drops below altitude 10° 03:34:38 10° 293° (WNW) 1,980 ? -9.5°
Sets 03:37:33 0° 272° (W) 2,883 ? -9.8°
